STARLINK-1560, 46036

Orbit data source: Space-Track

STARLINK-1560, 46036 is a payload satellite owned by SpaceX/Seattle (US) in LEO that was launched on Fri, 07 Aug 2020 UTC via an FALCON 9 launch vehicle from the Air Force Eastern Test Range (AFETR). Payload-class satellites include a variety of spacecraft equipped with specific instruments for various scientific and technological missions. These include communications satellites like Starlink; space stations such as the ISS; scientific satellites like the Hubble; Earth observation satellites from companies like Planet Labs, Umbra, and HawkEye 360; GPS; miniature CubeSats for education and research; and military/defense satellites.

Loading next visibility...
Identifier
46036, 2020-055K
Orbit
LEO
Country
Flag of USUS
Related business
Manufacturer
SpaceX/Seattle
Mission
Operational Commercial Communications
Bus & Motor
STARLINK, Unknown motor
Mass
260 kg wet, ~248 kg dry
Launch date (UTC)
2020-08-07 (5 years ago)
Launch vehicle
FALCON 9
Launch site
Air Force Eastern Test Range (AFETR)
Object type
Payload
Rocket body
Debris
Shape & HBR
Box + 1 Pan, 4.4 m
Radar Cross Section
13.562 m², Large (>1 m²)

Expand to show TLE details & history
Last TLE update: 1 day ago

TLE from 1 day ago
0 STARLINK-1560
1 46036U 20055K   25241.79101451 -.00003595  00000-0 -22279-3 0  9992
2 46036  53.0552 268.0877 0001241  90.1209 269.9923 15.06368598279973
Epoch: 2025-08-29T18:59Z
TLE epoch observation values (Epoch: 2025-08-29T18:59:03.653Z)
Latitude
0.00003°
Longitude
5.08791°
Altitude
548.187 km
Speed
7.589 km/s
True Right ascension
17h 52m 21s
True Declination
0° 00' 00"
Sunlit
Object was in daylight at epoch
Visualization orbit readout
Latitude
Unknown
Longitude
Unknown
Altitude
Unknown
Speed
Unknown
Apparent Right ascension
Unknown
Apparent Declination
Unknown
Sunlit
N/A
Visualization observer readout
Local Sidereal Time
16:44:21
Azimuth
Unknown
Elevation
Unknown
Doppler factor
Unknown
Orbital elements
Apogee altitude
548.438 km
Perigee altitude
546.719 km
Semi-major axis
6,925.715 km
Eccentricity
0.00012
Inclination
53.0552°
RAAN
268.0877°
Arg. of periapsis
90.1209°
True anomaly
269.97808°
Mean anomaly
269.9923°
Eccentric anomaly
269.98519°
Mean motion
3.7657 °/min
Orbital period
95.6 mins
BSTAR
-0.00022279
Loading maneuver chart data...
Computing Atmospheric mass density...
Loading historical data...
Loading historical data...
Loading historical data...
Loading historical data...
Loading historical data...
Loading historical data...
Loading historical data...

Documentation

Showing up to 5 results
|